Sulphur Springs, TX

9:57 PM CDT on September 24, 2016 (GMT -0500)
Sulphur Springs Municipal

Weather History for KSLR - July, 2013

Change the Weather History Date:

Wednesday, July 10, 2013

  Actual Average (KGVT) Record (KGVT)
Temperature  
Mean Temperature 90 °F -  
Max Temperature 100 °F 91 °F 102 °F (1998)
Min Temperature 81 °F 74 °F 71 °F (2004)
Cooling Degree Days 26    
Growing Degree Days 40 (Base 50)    
Moisture  
Dew Point 66 °F    
Average Humidity 46    
Maximum Humidity 68    
Minimum Humidity 29    
Precipitation  
Precipitation 0.00 in - - ()
Sea Level Pressure  
Sea Level Pressure 30.03 in    
Wind  
Wind Speed 9 mph (SSW)    
Max Wind Speed 16 mph    
Max Gust Speed 21 mph    
Visibility 10 miles    
Events      
Averages and records for this station are not official NWS values.
T = Trace of Precipitation, MM = Missing Value Source: NWS Daily Summary

Daily Weather History Graph

Daily Weather History Graph

Search for Another Location

Airport or City:

Trip Planner

Search our weather history database for the weather conditions in past years. The results will help you decide how hot, cold, wet, or windy it might be!

Date:

Astronomy

Jul. 10, 2013 Rise Set
Actual Time 6:21 AM CDT 8:33 PM CDT
Civil Twilight 5:53 AM CDT 9:02 PM CDT
Nautical Twilight 5:18 AM CDT 9:36 PM CDT
Astronomical Twilight 4:41 AM CDT 10:14 PM CDT
Moon 8:34 AM CDT (7/10) 9:55 PM CDT (7/10)
Length of Visible Light 15h 09m
Length of Day
14h 12m
Waxing Crescent, 5% of the Moon is Illuminated
Jul 10
Waxing Crescent
Jul 15
First Quarter
Jul 22
Full
Jul 29
Last Quarter
Aug 6
New

Hourly Weather History & Observations

Time (CDT) Temp. Heat Index Dew Point Humidity Pressure Visibility Wind Dir Wind Speed Gust Speed Precip Events Conditions
12:15 AM 86.2 °F 86.8 °F 62.6 °F 45% 30.05 in 10.0 mi SSE 6.9 mph - N/A   Clear
12:35 AM 85.5 °F 86.1 °F 62.8 °F 46% 30.05 in 10.0 mi South 6.9 mph - N/A   Clear
12:55 AM 85.3 °F 86.4 °F 63.3 °F 48% 30.06 in 10.0 mi South 6.9 mph - N/A   Clear
1:15 AM 84.9 °F 86.3 °F 64.4 °F 50% 30.06 in 10.0 mi South 8.1 mph - N/A   Clear
1:35 AM 84.2 °F 85.8 °F 64.8 °F 52% 30.06 in 10.0 mi South 9.2 mph - N/A   Clear
1:55 AM 84.2 °F 86.3 °F 65.8 °F 54% 30.06 in 10.0 mi South 9.2 mph - N/A   Clear
2:15 AM 83.8 °F 86.0 °F 66.2 °F 55% 30.06 in 10.0 mi South 9.2 mph - N/A   Clear
2:55 AM 83.3 °F 85.9 °F 67.3 °F 58% 30.06 in 10.0 mi SSW 11.5 mph - N/A   Clear
3:15 AM 83.1 °F 86.1 °F 68.0 °F 60% 30.06 in 10.0 mi SSW 10.4 mph - N/A   Clear
3:35 AM 82.9 °F 86.0 °F 68.4 °F 61% 30.06 in 10.0 mi SSW 11.5 mph - N/A   Clear
3:55 AM 82.8 °F 86.2 °F 68.9 °F 63% 30.06 in 10.0 mi SSW 10.4 mph - N/A   Clear
4:15 AM 82.4 °F 85.8 °F 69.1 °F 64% 30.05 in 10.0 mi SSW 11.5 mph - N/A   Clear
4:35 AM 82.4 °F 85.8 °F 69.3 °F 64% 30.05 in 10.0 mi SSW 10.4 mph - N/A   Clear
4:55 AM 82.0 °F 85.5 °F 69.4 °F 65% 30.05 in 10.0 mi SSW 9.2 mph - N/A   Clear
5:15 AM 81.7 °F 85.2 °F 69.6 °F 67% 30.06 in 10.0 mi SSW 9.2 mph - N/A   Clear
5:35 AM 81.7 °F 85.2 °F 69.6 °F 67% 30.06 in 10.0 mi SSW 9.2 mph - N/A   Scattered Clouds
5:55 AM 81.7 °F 85.2 °F 69.8 °F 67% 30.06 in 10.0 mi SSW 10.4 mph - N/A   Scattered Clouds
6:15 AM 81.5 °F 84.9 °F 69.8 °F 67% 30.06 in 10.0 mi SSW 9.2 mph - N/A   Clear
6:35 AM 81.5 °F 84.9 °F 69.8 °F 67% 30.07 in 10.0 mi SSW 12.7 mph - N/A   Clear
6:55 AM 81.5 °F 85.1 °F 70.0 °F 68% 30.07 in 10.0 mi SSW 12.7 mph 17.3 mph N/A   Scattered Clouds
7:15 AM 81.9 °F 85.8 °F 70.2 °F 68% 30.08 in 10.0 mi SSW 11.5 mph - N/A   Scattered Clouds
7:35 AM 82.4 °F 86.3 °F 70.2 °F 66% 30.08 in 10.0 mi SW 12.7 mph - N/A   Clear
7:55 AM 83.3 °F 87.4 °F 70.2 °F 64% 30.09 in 10.0 mi SW 13.8 mph 18.4 mph N/A   Clear
8:15 AM 83.5 °F 87.7 °F 70.0 °F 64% 30.08 in 10.0 mi SW 12.7 mph - N/A   Clear
8:35 AM 84.2 °F 88.7 °F 70.2 °F 63% 30.08 in 10.0 mi SW 12.7 mph 20.7 mph N/A   Clear
8:55 AM 84.9 °F 89.1 °F 69.8 °F 60% 30.09 in 10.0 mi WSW 13.8 mph - N/A   Clear
9:15 AM 86.4 °F 90.4 °F 68.9 °F 56% 30.09 in 10.0 mi SW 15.0 mph 18.4 mph N/A   Clear
9:35 AM 87.4 °F 91.2 °F 68.5 °F 53% 30.09 in 10.0 mi WSW 12.7 mph 20.7 mph N/A   Clear
9:55 AM 88.0 °F 91.0 °F 67.3 °F 50% 30.09 in 10.0 mi WSW 16.1 mph - N/A   Clear
10:15 AM 88.7 °F 91.9 °F 67.1 °F 49% 30.09 in 10.0 mi WSW 10.4 mph - N/A   Clear
10:35 AM 89.2 °F 92.4 °F 67.5 °F 48% 30.09 in 10.0 mi WSW 10.4 mph - N/A   Clear
10:55 AM 90.5 °F 93.8 °F 67.3 °F 46% 30.09 in 10.0 mi SSW 13.8 mph - N/A   Clear
11:15 AM 91.0 °F 94.3 °F 67.1 °F 45% 30.09 in 10.0 mi SSW 9.2 mph - N/A   Clear
11:35 AM 91.6 °F 95.2 °F 67.3 °F 45% 30.09 in 10.0 mi SW 9.2 mph 17.3 mph N/A   Clear
11:55 AM 92.8 °F 96.1 °F 66.9 °F 42% 30.08 in 10.0 mi WSW 10.4 mph - N/A   Clear
12:15 PM 93.7 °F 96.7 °F 66.2 °F 40% 30.08 in 10.0 mi WSW 9.2 mph - N/A   Clear
12:35 PM 93.7 °F 96.2 °F 65.7 °F 39% 30.07 in 10.0 mi WSW 11.5 mph 17.3 mph N/A   Clear
12:55 PM 93.7 °F 96.7 °F 66.0 °F 40% 30.07 in 10.0 mi WSW 9.2 mph - N/A   Clear
1:15 PM 95.7 °F 98.7 °F 65.5 °F 37% 30.06 in 10.0 mi SSW 9.2 mph 18.4 mph N/A   Clear
1:35 PM 96.6 °F 99.2 °F 65.1 °F 35% 30.06 in 10.0 mi SSW 10.4 mph 16.1 mph N/A   Clear
1:55 PM 97.0 °F 99.9 °F 64.8 °F 35% 30.05 in 10.0 mi SW 12.7 mph 18.4 mph N/A   Clear
2:15 PM 97.3 °F 99.4 °F 63.7 °F 33% 30.04 in 10.0 mi SSW 3.5 mph - N/A   Clear
2:35 PM 98.2 °F 101.0 °F 64.2 °F 33% 30.04 in 10.0 mi SSW 11.5 mph - N/A   Clear
2:55 PM 97.9 °F 99.8 °F 63.1 °F 32% 30.03 in 10.0 mi West 6.9 mph - N/A   Clear
3:15 PM 98.2 °F 99.9 °F 62.4 °F 31% 30.02 in 10.0 mi SW 9.2 mph - N/A   Clear
3:35 PM 98.4 °F 99.7 °F 62.4 °F 30% 30.01 in 10.0 mi West 6.9 mph 18.4 mph N/A   Clear
3:55 PM 98.6 °F 100.5 °F 62.8 °F 31% 30.00 in 10.0 mi West 12.7 mph 18.4 mph N/A   Clear
4:15 PM 99.5 °F 100.9 °F 61.9 °F 29% 29.99 in 10.0 mi West 8.1 mph - N/A   Clear
4:35 PM 99.5 °F 100.9 °F 61.9 °F 29% 29.98 in 10.0 mi WNW 6.9 mph - N/A   Clear
4:55 PM 99.5 °F 100.9 °F 61.5 °F 29% 29.97 in 10.0 mi SW 9.2 mph - N/A   Scattered Clouds
5:15 PM 100.0 °F 101.8 °F 62.4 °F 29% 29.96 in 10.0 mi SSE 6.9 mph - N/A   Scattered Clouds
5:35 PM 98.6 °F 100.0 °F 62.2 °F 30% 29.95 in 10.0 mi South 5.8 mph - N/A   Scattered Clouds
5:55 PM 97.7 °F 99.0 °F 61.9 °F 31% 29.95 in 10.0 mi SSE 3.5 mph - N/A   Clear
6:15 PM 99.3 °F 100.6 °F 61.5 °F 29% 29.95 in 10.0 mi SSW 4.6 mph - N/A   Clear
6:35 PM 99.1 °F 100.3 °F 61.3 °F 29% 29.95 in 10.0 mi SSE 8.1 mph - N/A   Clear
6:55 PM 98.6 °F 99.4 °F 61.2 °F 29% 29.95 in 10.0 mi South 6.9 mph - N/A   Clear
7:15 PM 98.6 °F 99.4 °F 61.7 °F 29% 29.94 in 10.0 mi South 6.9 mph - N/A   Clear
7:35 PM 97.7 °F 98.5 °F 61.7 °F 30% 29.94 in 10.0 mi South 6.9 mph - N/A   Clear
7:55 PM 97.0 °F 97.8 °F 61.9 °F 31% 29.94 in 10.0 mi South 5.8 mph - N/A   Clear
8:15 PM 96.3 °F 97.2 °F 62.1 °F 32% 29.94 in 10.0 mi South 4.6 mph - N/A   Clear
8:35 PM 95.0 °F 96.5 °F 63.1 °F 35% 29.94 in 10.0 mi South 3.5 mph - N/A   Clear
8:55 PM 93.4 °F 95.2 °F 64.0 °F 38% 29.95 in 10.0 mi SSE 4.6 mph - N/A   Clear
9:15 PM 92.7 °F 94.4 °F 64.2 °F 39% 29.95 in 10.0 mi SSE 4.6 mph - N/A   Clear
9:35 PM 92.3 °F 93.8 °F 64.4 °F 39% 29.96 in 10.0 mi SSE 4.6 mph - N/A   Clear
9:55 PM 91.8 °F 93.8 °F 64.8 °F 41% 29.96 in 10.0 mi SSE 4.6 mph - N/A   Clear
10:15 PM 90.5 °F 92.5 °F 65.5 °F 43% 29.96 in 10.0 mi SSE 4.6 mph - N/A   Clear
10:35 PM 89.8 °F 92.1 °F 65.7 °F 45% 29.96 in 10.0 mi SSE 4.6 mph - N/A   Clear
10:55 PM 89.1 °F 91.3 °F 65.8 °F 46% 29.98 in 10.0 mi SSE 4.6 mph - N/A   Clear
11:15 PM 88.5 °F 90.8 °F 65.8 °F 47% 29.97 in 10.0 mi SSE 5.8 mph - N/A   Clear
11:35 PM 88.3 °F 90.5 °F 65.5 °F 47% 29.97 in 10.0 mi SSE 5.8 mph - N/A   Clear
11:55 PM 88.5 °F 90.1 °F 64.8 °F 45% 29.97 in 10.0 mi SSE 8.1 mph - N/A   Clear